Other Public Products
Issued by NWS Charleston, SC

Home | Current Version | Previous Version | Text Only | Print | Product List | Glossary On
Versions: 1 2 3 4 5 6 7 8 9 10 11 12 13 14 15 16 17 18 19 20 21 22 23 24 25 26 27 28 29 30 31 32 33 34 35 36 37 38 39 40 41 42 43 44 45 46 47 48 49 50
125
FPUS82 KCHS 231828
OPUCHS

TEST...KCHS/KSAV Gateway Observations...TEST
National Weather Service Charleston SC
200 PM EDT SAT SEP 23 2017

NOTE: "fair" indicates few or no clouds below 12,000 feet with no
significant weather and/or obstructions to visibility.

SCZ050-WAZ558-NCZ071-TXZ119-213-PAZ071-DCZ001-FLZ074-172-MI076-
NYZ176-178-MAZ016-IL014-TNZ027-NJZ106-GAZ044-MD014-231900-

...Gateway Observations for Charleston International...

CITY           SKY/WX    TMP DP  RH WIND       PRES   REMARKS
Chas Airport   MOSUNNY   86  69  56 SE12      30.01F HX  90
6HR MIN TEMP:  72; 6HR MAX TEMP:  88;

Seattle        PTSUNNY   61  50  67 SW9       30.11R
6HR MIN TEMP:  54; 6HR MAX TEMP:  61;

Charlotte      MOSUNNY   86  63  45 N7        30.07F
6HR MIN TEMP:  68; 6HR MAX TEMP:  88;

Dallas DFW     PTSUNNY   90  67  46 S14       29.93F HX  93
6HR MIN TEMP:  73; 6HR MAX TEMP:  91;

Dallas Love    PTSUNNY   90  68  48 SE9       29.94F HX  94
6HR MIN TEMP:  75; 6HR MAX TEMP:  91;

Philladelphia  MOSUNNY   86  61  42 N5        30.04F
6HR MIN TEMP:  69; 6HR MAX TEMP:  87;

Wash National  MOSUNNY   85  63  47 N13G22    30.07F
6HR MIN TEMP:  68; 6HR MAX TEMP:  86;

Baltimore      MOSUNNY   85  63  47 VRB6      30.06F
6HR MIN TEMP:  63; 6HR MAX TEMP:  86;

Miami          CLOUDY    88  73  61 NE6       29.83F HX  95
6HR MIN TEMP:  80; 6HR MAX TEMP:  89; 6HR PCP: TRACE;

Detroit        MOSUNNY   88  63  43 CALM      30.15F
6HR MIN TEMP:  67; 6HR MAX TEMP:  90;

Newark         MOSUNNY   88  56  33 N13       30.02F
6HR MIN TEMP:  73; 6HR MAX TEMP:  88;

Laguardia      MOSUNNY   83  52  34 N14       30.02F
6HR MIN TEMP:  72; 6HR MAX TEMP:  83;

J F K          MOSUNNY   86  59  39 N14       30.02F
6HR MIN TEMP:  72; 6HR MAX TEMP:  87;

Boston Logan   MOSUNNY   73  61  65 E13       30.01F
6HR MIN TEMP:  63; 6HR MAX TEMP:  76;

Ft. Lauderdale CLOUDY    90  77  65 NE12      29.82F HX 103
6HR MIN TEMP:  79; 6HR MAX TEMP:  92;

Chicago O`Hare MOSUNNY   93  62  35 S7        30.08F HX  93
6HR MIN TEMP:  73; 6HR MAX TEMP:  93;

Chicago Midway MOSUNNY   92  64  39 E5        30.08F HX  93
6HR MIN TEMP:  76; 6HR MAX TEMP:  93;

Houston Bush   MOSUNNY   89  70  53 S10G17    29.93F HX  94
6HR MIN TEMP:  72; 6HR MAX TEMP:  90;

Houston Hobby  PTSUNNY   89  73  59 E9        29.92F HX  97
6HR MIN TEMP:  76; 6HR MAX TEMP:  90;

Nashville      PTSUNNY   89  68  49 VRB5      30.06F HX  93
6HR MIN TEMP:  68; 6HR MAX TEMP:  90;

Atlanta        PTSUNNY   84  64  50 NE8       30.06F
6HR MIN TEMP:  70; 6HR MAX TEMP:  85;


$$

GAZ044-118-TXZ119-213-NCZ071-DCZ001-MDZ014-506-PAZ021-071-NJZ106-
NYZ176-178-MAZ106-OHZ011-021-055-MIZ076-KYZ091-ILZ014-INZ047-
MNZ060-ONZ431-231900-

...Gateway Observations for Savannah International...

CITY           SKY/WX    TMP DP  RH WIND       PRES   REMARKS
Savannah Arpt  PTSUNNY   87  69  54 NE10      30.00F HX  91
6HR MIN TEMP:  71; 6HR MAX TEMP:  89;

Atlanta        PTSUNNY   84  64  50 NE8       30.06F
6HR MIN TEMP:  70; 6HR MAX TEMP:  85;

Charlotte      MOSUNNY   86  63  45 N7        30.07F
6HR MIN TEMP:  68; 6HR MAX TEMP:  88;

Dallas DFW     PTSUNNY   90  67  46 S14       29.93F HX  93
6HR MIN TEMP:  73; 6HR MAX TEMP:  91;

Houston Bush   MOSUNNY   89  70  53 S10G17    29.93F HX  94
6HR MIN TEMP:  72; 6HR MAX TEMP:  90;

Wash National  MOSUNNY   85  63  47 N13G22    30.07F
6HR MIN TEMP:  68; 6HR MAX TEMP:  86;

Wash Dulles    MOSUNNY   83  61  47 N10G17    30.08F
6HR MIN TEMP:  63; 6HR MAX TEMP:  83;

Baltimore      MOSUNNY   85  63  47 VRB6      30.06F
6HR MIN TEMP:  63; 6HR MAX TEMP:  86;

Philadelphia   MOSUNNY   86  61  42 N5        30.04F
6HR MIN TEMP:  69; 6HR MAX TEMP:  87;

Newark         MOSUNNY   88  56  33 N13       30.02F
6HR MIN TEMP:  73; 6HR MAX TEMP:  88;

Laguardia      MOSUNNY   83  52  34 N14       30.02F
6HR MIN TEMP:  72; 6HR MAX TEMP:  83;

J F K          MOSUNNY   86  59  39 N14       30.02F
6HR MIN TEMP:  72; 6HR MAX TEMP:  87;

Boston         MOSUNNY   73  61  65 E13       30.01F
6HR MIN TEMP:  63; 6HR MAX TEMP:  76;

Pittsburg      MOSUNNY   86  50  28 CALM      30.15F
6HR MIN TEMP:  60; 6HR MAX TEMP:  87;

Akron          MOSUNNY   89  58  34 VRB6      30.16S
6HR MIN TEMP:  63; 6HR MAX TEMP:  89;

Cleveland      SUNNY     89  52  28 N10G18    30.17F
6HR MIN TEMP:  64; 6HR MAX TEMP:  90;

Cincinnati     MOSUNNY   87  65  47 NE10      30.12F
6HR MIN TEMP:  66; 6HR MAX TEMP:  88;

Columbus       SUNNY     87  57  35 NE7       30.10F
Detroit        MOSUNNY   88  63  43 CALM      30.15F
6HR MIN TEMP:  67; 6HR MAX TEMP:  90;

Chicago O`Hare MOSUNNY   93  62  35 S7        30.08F HX  93
6HR MIN TEMP:  73; 6HR MAX TEMP:  93;

Minneapolis    PTSUNNY   85  71  63 S13       29.96S HX  90
6HR MIN TEMP:  73; 6HR MAX TEMP:  85;

Indianapolis   MOSUNNY   89  65  44 SE5       30.11F HX  91
6HR MIN TEMP:  69; 6HR MAX TEMP:  89;

Toronto Canada MOSUNNY   88  63  42 E3        30.10F

$$




USA.gov is the U.S. government's official web portal to all federal, state and local government web resources and services.